AC5JC-1 Weather Reports


Display with metric or nautical units.
time (UTC)temp
F
wind
direction
speed
MPH
gust
MPH
rain 1hr
in
rain 24hr
in
rain mn
in
humidity
%
barometer
mb
20260902194558 99 114 3.0 9.0 0.00 0.00 0.00 43 1013.8
20260902194115 99 193 2.0 5.0 0.00 0.00 0.00 43 1013.9
20260902193534 99 173 1.0 6.0 0.00 0.00 0.00 43 1014.0
20260902193055 99 130 1.0 3.0 0.00 0.00 0.00 44 1014.0
20260902192526 98 151 1.0 2.0 0.00 0.00 0.00 43 1014.3
20260902192109 98 113 3.0 6.0 0.00 0.00 0.00 43 1014.3
20260902191550 99 183 2.0 3.0 0.00 0.00 0.00 43 1014.3
20260902191034 98 107 2.0 6.0 0.00 0.00 0.00 44 1014.4
20260902190534 98 131 2.0 5.0 0.00 0.00 0.00 44 1014.5
20260902190115 98 132 2.0 5.0 0.00 0.00 0.00 45 1014.5
20260902185622 99 128 2.0 5.0 0.00 0.00 0.00 44 1014.7
20260902185101 98 173 2.0 3.0 0.00 0.00 0.00 44 1014.7
20260902184603 97 128 1.0 3.0 0.00 0.00 0.00 45 1014.8
20260902184034 97 151 2.0 6.0 0.00 0.00 0.00 45 1014.9
20260902183621 96 151 3.0 7.0 0.00 0.00 0.00 47 1015.0
20260902183102 97 140 2.0 7.0 0.00 0.00 0.00 45 1015.0
20260902182601 97 185 1.0 2.0 0.00 0.00 0.00 47 1015.3
20260902182022 97 178 1.0 2.0 0.00 0.00 0.00 47 1015.4
20260902181605 96 113 2.0 5.0 0.00 0.00 0.00 46 1015.6
20260902181036 95 114 4.0 9.0 0.00 0.00 0.00 48 1015.6
20260902180526 96 112 2.0 6.0 0.00 0.00 0.00 48 1015.7
20260902180110 97 124 3.0 6.0 0.00 0.00 0.00 47 1015.9
20260902175549 96 156 1.0 5.0 0.00 0.00 0.00 47 1015.8
20260902175030 96 141 2.0 5.0 0.00 0.00 0.00 48 1016.0
20260902174613 96 145 1.0 2.0 0.00 0.00 0.00 47 1015.8
20260902174053 96 128 2.0 3.0 0.00 0.00 0.00 47 1016.0
20260902173534 97 117 1.0 2.0 0.00 0.00 0.00 48 1016.0
20260902173118 96 167 1.0 2.0 0.00 0.00 0.00 47 1016.3
20260902172557 95 192 2.0 3.0 0.00 0.00 0.00 48 1016.2
20260902172035 94 194 2.0 3.0 0.00 0.00 0.00 50 1016.1
20260902171615 95 122 3.0 6.0 0.00 0.00 0.00 50 1016.3
20260902171034 94 152 3.0 6.0 0.00 0.00 0.00 50 1016.2
20260902170527 95 118 1.0 3.0 0.00 0.00 0.00 49 1016.3
20260902170129 94 190 1.0 2.0 0.00 0.00 0.00 49 1016.3
20260902165549 93 143 2.0 5.0 0.00 0.00 0.00 49 1016.5
20260902165034 93 118 1.0 5.0 0.00 0.00 0.00 50 1016.5
20260902164615 93 98 3.0 6.0 0.00 0.00 0.00 50 1016.5
20260902164022 94 137 1.0 2.0 0.00 0.00 0.00 50 1016.6
20260902163605 94 138 2.0 3.0 0.00 0.00 0.00 50 1016.7
20260902163046 94 132 2.0 5.0 0.00 0.00 0.00 49 1016.7
20260902162526 94 177 1.0 1.0 0.00 0.00 0.00 50 1016.8
20260902162109 94 123 0.0 2.0 0.00 0.00 0.00 50 1016.9
20260902161550 93 151 1.0 1.0 0.00 0.00 0.00 51 1016.9
20260902161034 93 181 1.0 3.0 0.00 0.00 0.00 51 1016.7
20260902160534 93 172 1.0 2.0 0.00 0.00 0.00 52 1016.9
20260902160043 93 179 1.0 2.0 0.00 0.00 0.00 53 1016.8
20260902155605 92 177 1.0 1.0 0.00 0.00 0.00 53 1016.8
20260902155045 92 190 1.0 2.0 0.00 0.00 0.00 52 1016.9
20260902154535 91 130 1.0 3.0 0.00 0.00 0.00 55 1016.9
20260902154034 91 173 1.0 2.0 0.00 0.00 0.00 56 1016.8
20260902153534 92 179 1.0 2.0 0.00 0.00 0.00 55 1016.8
20260902153051 91 159 0.0 1.0 0.00 0.00 0.00 57 1016.8
20260902152613 90 175 1.0 2.0 0.00 0.00 0.00 58 1016.8
20260902152053 90 171 1.0 2.0 0.00 0.00 0.00 58 1016.9
20260902151535 90 174 1.0 2.0 0.00 0.00 0.00 58 1016.8
20260902151034 90 182 1.0 1.0 0.00 0.00 0.00 58 1016.7
20260902150534 89 172 1.0 2.0 0.00 0.00 0.00 59 1016.7
20260902150035 89 157 1.0 3.0 0.00 0.00 0.00 60 1016.9
20260902145538 88 164 1.0 2.0 0.00 0.00 0.00 61 1016.8
20260902145101 88 169 2.0 6.0 0.00 0.00 0.00 61 1016.7
20260902144542 89 183 1.0 2.0 0.00 0.00 0.00 61 1016.7
20260902144022 89 151 1.0 2.0 0.00 0.00 0.00 61 1016.8
20260902143605 88 174 0.0 1.0 0.00 0.00 0.00 62 1016.8
20260902143046 87 158 1.0 2.0 0.00 0.00 0.00 63 1016.8
20260902142526 87 173 0.0 1.0 0.00 0.00 0.00 64 1016.8
20260902142150 86 168 1.0 2.0 0.00 0.00 0.00 64 1016.8
20260902141550 87 146 1.0 1.0 0.00 0.00 0.00 64 1016.7
20260902141030 86 167 1.0 1.0 0.00 0.00 0.00 66 1016.8
20260902140615 86 152 1.0 5.0 0.00 0.00 0.00 66 1016.8
20260902140054 86 159 1.0 2.0 0.00 0.00 0.00 66 1016.8
20260902135534 86 158 1.0 3.0 0.00 0.00 0.00 67 1016.7
20260902135117 86 155 1.0 3.0 0.00 0.00 0.00 66 1016.8
20260902134618 86 149 0.0 2.0 0.00 0.00 0.00 67 1016.7
20260902134038 85 143 0.0 2.0 0.00 0.00 0.00 67 1016.7
20260902133519 85 135 1.0 2.0 0.00 0.00 0.00 68 1016.7
20260902133122 85 155 1.0 3.0 0.00 0.00 0.00 69 1016.8
20260902132541 83 159 0.0 1.0 0.00 0.00 0.00 71 1016.8
20260902132022 82 152 0.0 1.0 0.00 0.00 0.00 74 1016.7
20260902131605 79 181 0.0 1.0 0.00 0.00 0.00 78 1016.6
20260902131045 77 174 0.0 1.0 0.00 0.00 0.00 81 1016.6
20260902130546 77 0.0 0.0 0.00 0.00 0.00 83 1016.5
20260902130109 76 0.0 0.0 0.00 0.00 0.00 83 1016.3
20260902125549 76 0.0 0.0 0.00 0.00 0.00 83 1016.5
20260902125030 76 0.0 0.0 0.00 0.00 0.00 83 1016.5
20260902124614 76 0.0 0.0 0.00 0.00 0.00 84 1016.4
20260902124113 76 0.0 0.0 0.00 0.00 0.00 83 1016.4
20260902123555 76 0.0 0.0 0.00 0.00 0.00 84 1016.4
20260902123102 76 0.0 0.0 0.00 0.00 0.00 83 1016.3
20260902122541 76 0.0 0.0 0.00 0.00 0.00 83 1016.2
20260902122042 76 0.0 0.0 0.00 0.00 0.00 82 1016.4
20260902121606 76 0.0 0.0 0.00 0.00 0.00 82 1016.2
20260902121045 76 0.0 0.0 0.00 0.00 0.00 82 1016.1
20260902120526 76 0.0 0.0 0.00 0.00 0.00 81 1016.3
20260902120109 76 0.0 0.0 0.00 0.00 0.00 81 1016.1
20260902115549 76 0.0 0.0 0.00 0.00 0.00 81 1016.2
20260902115034 76 0.0 0.0 0.00 0.00 0.00 81 1016.1
20260902114554 76 0.0 0.0 0.00 0.00 0.00 81 1016.1
20260902114034 76 0.0 0.0 0.00 0.00 0.00 81 1016.0
20260902113534 76 0.0 0.0 0.00 0.00 0.00 81 1016.0
20260902113035 76 0.0 0.0 0.00 0.00 0.00 80 1016.1
20260902112534 76 0.0 0.0 0.00 0.00 0.00 80 1016.0
20260902112022 77 0.0 0.0 0.00 0.00 0.00 80 1016.1
20260902111605 77 0.0 0.0 0.00 0.00 0.00 79 1016.1
20260902111035 77 0.0 0.0 0.00 0.00 0.00 79 1016.0
20260902110534 77 0.0 0.0 0.00 0.00 0.00 78 1015.8
20260902110055 77 0.0 0.0 0.00 0.00 0.00 78 1015.9
20260902105534 78 0.0 0.0 0.00 0.00 0.00 77 1015.9
20260902105118 78 0.0 0.0 0.00 0.00 0.00 77 1016.0
20260902104558 78 0.0 0.0 0.00 0.00 0.00 77 1015.9
20260902104037 78 0.0 0.0 0.00 0.00 0.00 76 1015.9
20260902103534 78 0.0 0.0 0.00 0.00 0.00 76 1015.9
20260902103034 78 0.0 0.0 0.00 0.00 0.00 76 1015.9
20260902102534 78 179 0.0 1.0 0.00 0.00 0.00 75 1015.8
20260902102022 78 179 0.0 1.0 0.00 0.00 0.00 76 1015.9
20260902101626 78 179 0.0 1.0 0.00 0.00 0.00 76 1015.9
20260902101045 78 0.0 0.0 0.00 0.00 0.00 76 1015.9
20260902100554 78 0.0 0.0 0.00 0.00 0.00 76 1015.9
20260902100054 78 0.0 0.0 0.00 0.00 0.00 75 1016.0
20260902095534 78 0.0 0.0 0.00 0.00 0.00 75 1015.9
20260902095034 78 0.0 0.0 0.00 0.00 0.00 75 1015.9
20260902094534 79 0.0 0.0 0.00 0.00 0.00 74 1016.0
20260902094054 79 0.0 0.0 0.00 0.00 0.00 74 1015.9
20260902093534 79 0.0 0.0 0.00 0.00 0.00 73 1015.9
20260902093036 80 0.0 0.0 0.00 0.00 0.00 72 1016.0
20260902092554 80 0.0 0.0 0.00 0.00 0.00 73 1015.9
20260902092034 80 0.0 0.0 0.00 0.00 0.00 73 1016.0
20260902091635 80 180 0.0 1.0 0.00 0.00 0.00 72 1016.0
20260902091034 81 179 0.0 1.0 0.00 0.00 0.00 71 1016.1
20260902090534 81 179 0.0 1.0 0.00 0.00 0.00 71 1016.0
20260902090035 81 179 0.0 1.0 0.00 0.00 0.00 70 1016.0
20260902085534 81 180 0.0 1.0 0.00 0.00 0.00 69 1016.0
20260902085031 82 176 0.0 1.0 0.00 0.00 0.00 70 1016.0
20260902084614 82 177 0.0 1.0 0.00 0.00 0.00 69 1016.1
20260902084053 82 171 0.0 1.0 0.00 0.00 0.00 68 1016.0
20260902083535 83 179 1.0 2.0 0.00 0.00 0.00 67 1016.1
20260902083035 83 178 1.0 2.0 0.00 0.00 0.00 67 1016.1
20260902082534 83 174 0.0 1.0 0.00 0.00 0.00 68 1016.1
20260902082034 83 179 0.0 1.0 0.00 0.00 0.00 67 1016.0
20260902081555 83 185 1.0 2.0 0.00 0.00 0.00 66 1016.1
20260902081034 83 189 1.0 2.0 0.00 0.00 0.00 66 1016.1
20260902080534 83 179 1.0 3.0 0.00 0.00 0.00 66 1016.1
20260902080034 83 181 1.0 2.0 0.00 0.00 0.00 66 1016.1
20260902075534 83 185 1.0 2.0 0.00 0.00 0.00 67 1016.1
20260902075034 83 169 1.0 3.0 0.00 0.00 0.00 68 1016.1
20260902074534 83 183 1.0 3.0 0.00 0.00 0.00 67 1016.0
20260902074054 83 179 1.0 2.0 0.00 0.00 0.00 67 1016.1
20260902073534 83 179 1.0 1.0 0.00 0.00 0.00 67 1016.0
20260902073034 83 176 1.0 1.0 0.00 0.00 0.00 68 1016.2
20260902072534 83 180 1.0 2.0 0.00 0.00 0.00 67 1016.2
20260902072034 83 176 1.0 1.0 0.00 0.00 0.00 67 1016.2
20260902071534 84 178 1.0 1.0 0.00 0.00 0.00 66 1016.2
20260902071118 84 184 1.0 2.0 0.00 0.00 0.00 67 1016.1
20260902070558 84 178 1.0 2.0 0.00 0.00 0.00 66 1016.1
20260902070055 84 182 1.0 2.0 0.00 0.00 0.00 66 1016.2
20260902065534 84 162 2.0 5.0 0.00 0.00 0.00 65 1016.2
20260902065114 84 184 1.0 3.0 0.00 0.00 0.00 65 1016.2
20260902064527 84 180 1.0 3.0 0.00 0.00 0.00 65 1016.2
20260902064110 84 172 1.0 2.0 0.00 0.00 0.00 65 1016.1
20260902063550 84 186 1.0 2.0 0.00 0.00 0.00 65 1016.0
20260902063034 84 173 1.0 2.0 0.00 0.00 0.00 66 1016.0
20260902062534 85 177 1.0 2.0 0.00 0.00 0.00 65 1016.1
20260902062034 85 181 1.0 2.0 0.00 0.00 0.00 64 1015.9
20260902061534 85 176 1.0 1.0 0.00 0.00 0.00 64 1015.8
20260902061030 85 191 1.0 2.0 0.00 0.00 0.00 63 1015.8
20260902060614 85 187 1.0 2.0 0.00 0.00 0.00 63 1015.8
20260902060135 85 189 1.0 3.0 0.00 0.00 0.00 64 1015.7
20260902055535 85 184 1.0 3.0 0.00 0.00 0.00 63 1015.7
20260902055118 85 183 1.0 2.0 0.00 0.00 0.00 63 1015.6
20260902054558 85 182 1.0 2.0 0.00 0.00 0.00 64 1015.5
20260902054035 84 173 0.0 1.0 0.00 0.00 0.00 64 1015.5
20260902053622 84 173 0.0 1.0 0.00 0.00 0.00 65 1015.6
20260902053102 83 179 1.0 2.0 0.00 0.00 0.00 65 1015.5
20260902052535 82 163 0.0 1.0 0.00 0.00 0.00 67 1015.4
20260902052043 81 168 1.0 2.0 0.00 0.00 0.00 69 1015.5
20260902051606 81 0.0 0.0 0.00 0.00 0.00 69 1015.4
20260902051035 81 0.0 0.0 0.00 0.00 0.00 68 1015.2
20260902050528 82 0.0 0.0 0.00 0.00 0.00 67 1015.3
20260902050130 82 0.0 0.0 0.00 0.00 0.00 67 1015.3
20260902045550 82 0.0 0.0 0.00 0.00 0.00 66 1015.3
20260902045030 82 0.0 0.0 0.00 0.00 0.00 66 1015.3
20260902044614 82 0.0 0.0 0.00 0.00 0.00 66 1015.2
20260902044054 82 0.0 0.0 0.00 0.00 0.00 66 1015.2
20260902043535 82 0.0 0.0 0.00 0.00 0.00 65 1015.3
20260902043138 82 0.0 0.0 0.00 0.00 0.00 65 1015.2
20260902042558 83 0.0 0.0 0.00 0.00 0.00 65 1015.2
20260902042055 83 0.0 0.0 0.00 0.00 0.00 64 1015.2
20260902041536 83 0.0 0.0 0.00 0.00 0.00 64 1015.2
20260902041035 83 0.0 0.0 0.00 0.00 0.00 64 1015.2
20260902040555 83 0.0 0.0 0.00 0.00 0.00 64 1015.2
20260902040023 83 0.0 0.0 0.00 0.00 0.00 64 1015.2
20260902035606 83 0.0 0.0 0.00 0.00 0.00 64 1015.3
20260902035035 83 0.0 0.0 0.00 0.00 0.00 63 1015.3
20260902034535 84 0.0 0.0 0.00 0.00 0.00 63 1015.3
20260902034035 84 0.0 0.0 0.00 0.00 0.00 62 1015.3
20260902033642 84 0.0 0.0 0.00 0.00 0.00 62 1015.1
20260902033102 84 0.0 0.0 0.00 0.00 0.00 62 1015.2
20260902032535 84 0.0 0.0 0.00 0.00 0.00 61 1015.0
20260902032035 85 0.0 0.0 0.00 0.00 0.00 60 1015.0
20260902031536 85 0.0 0.0 0.00 0.00 0.00 60 1014.9
20260902031035 85 0.0 0.0 0.00 0.00 0.00 60 1014.9
20260902030607 86 0.0 0.0 0.00 0.00 0.00 59 1014.8
20260902030110 86 0.0 0.0 0.00 0.00 0.00 58 1014.7
20260902025550 87 0.0 0.0 0.00 0.00 0.00 57 1014.6
20260902025055 87 0.0 0.0 0.00 0.00 0.00 57 1014.5
20260902024535 87 149 0.0 1.0 0.00 0.00 0.00 57 1014.4
20260902024055 87 167 0.0 1.0 0.00 0.00 0.00 57 1014.4
20260902023622 87 0.0 0.0 0.00 0.00 0.00 57 1014.4
20260902023102 87 0.0 0.0 0.00 0.00 0.00 57 1014.3
20260902022542 87 0.0 0.0 0.00 0.00 0.00 56 1014.2
20260902022035 87 167 0.0 1.0 0.00 0.00 0.00 56 1014.2
20260902021536 88 172 0.0 1.0 0.00 0.00 0.00 56 1014.0
20260902021035 88 173 0.0 1.0 0.00 0.00 0.00 55 1014.0
20260902020607 88 170 0.0 1.0 0.00 0.00 0.00 55 1014.0
20260902020110 88 0.0 0.0 0.00 0.00 0.00 56 1013.9
20260902015550 88 0.0 0.0 0.00 0.00 0.00 55 1013.7
20260902015034 88 0.0 0.0 0.00 0.00 0.00 55 1013.9
20260902014616 89 0.0 0.0 0.00 0.00 0.00 54 1013.7
20260902014035 89 0.0 0.0 0.00 0.00 0.00 53 1013.7
20260902013535 89 0.0 0.0 0.00 0.00 0.00 53 1013.7
20260902013035 90 166 0.0 1.0 0.00 0.00 0.00 53 1013.6
20260902012535 90 177 0.0 1.0 0.00 0.00 0.00 52 1013.5
20260902012035 90 169 0.0 1.0 0.00 0.00 0.00 52 1013.5
20260902011556 91 160 0.0 1.0 0.00 0.00 0.00 51 1013.5
20260902011035 91 138 0.0 3.0 0.00 0.00 0.00 51 1013.3
20260902010555 91 151 0.0 2.0 0.00 0.00 0.00 50 1013.3
20260902010024 91 0.0 0.0 0.00 0.00 0.00 49 1013.3
20260902005606 92 164 0.0 1.0 0.00 0.00 0.00 48 1013.4
20260902005035 92 175 0.0 1.0 0.00 0.00 0.00 48 1013.5
20260902004535 93 165 0.0 1.0 0.00 0.00 0.00 48 1013.4
20260902004035 93 153 0.0 1.0 0.00 0.00 0.00 47 1013.4
20260902003554 93 175 0.0 1.0 0.00 0.00 0.00 47 1013.4
20260902003118 94 173 0.0 2.0 0.00 0.00 0.00 46 1013.5
20260902002558 94 140 1.0 5.0 0.00 0.00 0.00 45 1013.4
20260902002058 95 155 1.0 1.0 0.00 0.00 0.00 45 1013.6
20260902001536 95 169 1.0 6.0 0.00 0.00 0.00 45 1013.6
20260902001036 95 166 1.0 2.0 0.00 0.00 0.00 45 1013.6
20260902000535 95 163 1.0 2.0 0.00 0.00 0.00 44 1013.7
20260902000035 96 167 1.0 2.0 0.00 0.00 0.00 43 1013.6
20260901235535 96 149 1.0 3.0 0.00 0.00 0.00 42 1013.6
20260901235035 97 152 1.0 2.0 0.00 0.00 0.00 42 1013.5
20260901234535 98 158 1.0 2.0 0.00 0.00 0.00 41 1013.7
20260901234035 98 190 1.0 3.0 0.00 0.00 0.00 40 1013.7
20260901233535 98 159 1.0 3.0 0.00 0.00 0.00 39 1013.7
20260901233035 98 183 1.0 2.0 0.00 0.00 0.00 40 1013.7
20260901232535 99 131 2.0 7.0 0.00 0.00 0.00 40 1013.8
20260901232035 99 196 1.0 5.0 0.00 0.00 0.00 39 1013.8
20260901231535 99 175 1.0 3.0 0.00 0.00 0.00 39 1013.9
20260901231035 100 173 1.0 3.0 0.00 0.00 0.00 38 1013.8
20260901230535 100 239 1.0 3.0 0.00 0.00 0.00 37 1013.8
20260901230035 100 166 1.0 3.0 0.00 0.00 0.00 38 1013.9
20260901225519 100 173 1.0 3.0 0.00 0.00 0.00 39 1013.7
20260901225123 100 134 1.0 1.0 0.00 0.00 0.00 39 1013.9
20260901224536 100 183 2.0 3.0 0.00 0.00 0.00 38 1013.8
20260901224035 100 183 1.0 3.0 0.00 0.00 0.00 39 1013.8
20260901223534 100 140 2.0 6.0 0.00 0.00 0.00 39 1013.9
20260901223031 101 133 1.0 3.0 0.00 0.00 0.00 38 1013.9
20260901222614 101 195 1.0 2.0 0.00 0.00 0.00 37 1013.9
20260901222054 101 184 1.0 2.0 0.00 0.00 0.00 37 1013.9
20260901221536 100 177 1.0 3.0 0.00 0.00 0.00 39 1013.9
20260901221035 100 150 2.0 8.0 0.00 0.00 0.00 39 1013.9
20260901220535 101 155 1.0 3.0 0.00 0.00 0.00 39 1014.0
20260901220035 100 190 1.0 2.0 0.00 0.00 0.00 39 1014.1
20260901215519 100 192 3.0 6.0 0.00 0.00 0.00 40 1014.0
20260901215123 100 172 2.0 6.0 0.00 0.00 0.00 40 1014.1
20260901214543 100 130 2.0 5.0 0.00 0.00 0.00 40 1014.2
20260901214035 99 161 1.0 2.0 0.00 0.00 0.00 40 1014.2
20260901213555 99 168 1.0 1.0 0.00 0.00 0.00 41 1014.2
20260901213035 99 134 1.0 3.0 0.00 0.00 0.00 40 1014.3
20260901212527 100 167 2.0 3.0 0.00 0.00 0.00 41 1014.3
20260901212110 101 184 2.0 3.0 0.00 0.00 0.00 41 1014.3
20260901211631 101 163 2.0 5.0 0.00 0.00 0.00 40 1014.4
20260901211035 101 155 3.0 10.0 0.00 0.00 0.00 40 1014.5
20260901210535 102 144 2.0 5.0 0.00 0.00 0.00 40 1014.5
20260901210055 102 192 1.0 3.0 0.00 0.00 0.00 38 1014.4
20260901205535 100 169 1.0 6.0 0.00 0.00 0.00 41 1014.4
20260901205035 100 149 1.0 3.0 0.00 0.00 0.00 40 1014.5
20260901204536 100 138 4.0 8.0 0.00 0.00 0.00 40 1014.7
20260901204034 101 236 2.0 5.0 0.00 0.00 0.00 39 1014.7
20260901203535 100 185 1.0 2.0 0.00 0.00 0.00 39 1014.8
20260901203035 99 206 1.0 3.0 0.00 0.00 0.00 39 1014.8
20260901202527 99 171 1.0 3.0 0.00 0.00 0.00 41 1015.0
20260901202131 99 169 2.0 5.0 0.00 0.00 0.00 41 1015.1
20260901201551 99 159 2.0 5.0 0.00 0.00 0.00 41 1015.0
20260901201055 100 150 1.0 2.0 0.00 0.00 0.00 41 1015.1
20260901200535 99 154 1.0 6.0 0.00 0.00 0.00 42 1015.2
20260901200035 98 126 2.0 6.0 0.00 0.00 0.00 42 1015.2
20260901195534 97 178 1.0 2.0 0.00 0.00 0.00 42 1015.3
20260901195118 98 191 1.0 2.0 0.00 0.00 0.00 43 1015.2